Погода Чапаево

Погода Чапаево : погода сейчас, прогноз погоды и архив. Всё, что Вы хотите узнать о погоде Чапаево!

Поиск расширенной информации на нашем сайте:

Полезная информация:

Другие новости

Новости СМИ2

Главная страница сайта

Новости сайта

03.07.2017

Напоминаем, что на нашем специализированном сайте Метеоцентр.Азия вы можете получить высокодетализированные автоматические прогнозы погоды по пунктам России, СНГ и мира в авиационном формате (включающие направление и скорость ветра, видимость, явления погоды, количество и форму облачности, нижнюю и верхнюю границу облачности).

Рекомендуем:

Погода Чапаево - сегодня

Время (UTC), дата Ветер
(°,м/с) 
Видим.   Явления Облачность Т
(°С)
Тd
(°С)
f(%) Тe
(°С)
Pmin
(гПа)
dP
(гПа)
Po
(мм)
O2
(г/м3)
Тmin Tmax R s Состояние
почвы
21 17.03.19 080 (В) н/о    10/10 600 м 
[Sc]
-0.2 -1.7 90 -3  1017.8  762  307           
00 18.03.19 080 (В) н/о    10/10 600 м 
[Sc]
-0.8 -2.4 89 -3  1018.4  0.6  762  308           
03 18.03.19 080 (В) 20000 м    8/0 средняя 
[Ac und]
-2 -3.8 87 -5  1018.5  0.1  762  310        мокрый или
старый снег
50-90% 
06 18.03.19 030 (СВ) 20000 м    10/0 средняя 
[Ac As]
-1.3 -4 82 -4  1020.9  2.4  764  310  -2    0.0     
09 18.03.19 070 (В) 20000 м    10/10 600 м 
[Sc]
-0.6 -4.9 73 -3  1021.6  0.7  765  309           
12 18.03.19 070 (В) 20000 м    10/10 600 м 
[Sc]
-0.8 -4.3 77 -4  1022.4  0.8  765  310           
15 18.03.19 030 (СВ) 20000 м    9/9 600 м 
[Cu Sc]
-1.3 -4.3 80 -4  1023  0.6  766  311    -0.5       
18 18.03.19 020 (С) н/о    9/9 600 м 
[Cu Sc]
-1.3 -4.3 80 -4  1024.1  1.1  767  311    -0.5       
21 18.03.19 030 (СВ) н/о    10/10 600 м 
[Sc]
-0.9 -2.2 91 -3  1024.1  767  310           
00 19.03.19 030 (СВ) н/о    10/10 600 м 
[Sc]
-0.4 -1.6 92 -3  1024.5  0.4  767  310           
03 19.03.19 040 (СВ) 20000 м    10/0 средняя 
[Ac As]
-0.6 -2.5 87 -3  1025.7  1.2  768  310        мокрый или
старый снег
50-90% 
06 19.03.19 050 (СВ) 20000 м    8/8 600 м 
[Sc]
+0.8 -2.8 77 -2  1027  1.3  769  309  -1.5         
09 19.03.19 060 (СВ) 20000 м    6/6 600 м 
[Sc]
+2.3 -2.8 69 1026.9  -0.1  769  308           
12 19.03.19 050 (СВ) 20000 м    1/0 верхняя 
[Ci fib]
+2.2 -2.9 69 1026.7  -0.2  769  308           
15 19.03.19 050 (СВ) 20000 м    ясно 
+0.8 -2.8 77 -1  1027.3  0.6  769  309    +2.8       
18 19.03.19 040 (СВ) н/о    ясно 
-0.7 -3.6 81 -3  1027.6  0.3  769  311    +2.8       
21 19.03.19 020 (С) н/о    ясно 
-1.9 -4.4 83 -4  1027.2  -0.4  769  313           
00 20.03.19 040 (СВ) н/о    ясно 
-3.2 -5.3 85 -5  1026.4  -0.8  768  314           
03 20.03.19 360 (С) 20000 м    3/0 верхняя 
[Ci fib]
-5.1 -6.1 93 -6  1026.4  -0.1  768  316        мокрый или
старый снег
50-90% 
06 20.03.19 360 (С) 20000 м    1/0 средняя 
[Ac lent]
+1.2 -3.4 71 1026.6  0.3  769  309  -5.1         
09 20.03.19 030 (СВ) 20000 м    ясно 
+4.2 -2.1 64 +3  1025.8  -0.8  768  305           
12 20.03.19 040 (СВ) 20000 м    ясно 
+4 -3 60 +3  1024.8  -1  767  305           
15 20.03.19 030 (СВ) 20000 м    1/0 средняя 
[Ac As]
+0.9 -3.8 71 1024.7  -0.1  767  309    +4.8       
18 20.03.19 030 (СВ) н/о    8/0 средняя 
[Ac trans]
-0.1 -4.1 74 -2  1024.5  -0.2  767  310    +4.8       
21 20.03.19 030 (СВ) н/о    9/0 средняя 
[Ac trans]
-0.4 -2.5 86 -2  1023.5  -1  766  310           
Время (UTC), дата Ветер
(°,м/с) 
Видим.   Явления Облачность Т
(°С)
Тd
(°С)
f(%) Тe
(°С)
Pmin
(гПа)
dP
(гПа)
Po
(мм)
O2
(г/м3)
Тmin Tmax R s Состояние
почвы

Для получения пояснительной информации подведите курсор к названию столбца.

ПОГОДА Чапаево - архив

Всё, что Вы хотите узнать о погоде Чапаево - удобно и подробно!

Выберите нужную дату (начиная с 1 января 2018* года) и нажмите кнопку "Найти".
Будут отображены архивные сводки погоды по пункту Чапаево, начиная с указанной даты.


Отображать данные в формате CSV (для использования в таблицах Excel)


Внимание! Наш архив погоды предназначен исключительно для личного некоммерческого использования в познавательных целях. Если Вам необходимы официальные справки о состоянии погоды (для производственных, юридических, коммерческих и т.п. целей), обращайтесь в органы Росгидромета.

*Примечание: данная дата относится к архиву по метеостанциям СССР (Россия, СНГ, Балтия).
Архив по метеостанциям Зарубежной Европы и Азии (кроме Китая) хранится 10 дней, по другим регионам земного шара (Китай, Африка, Америка, Австралия, Океания) - 1 день.

Чапаево - район местоположения метеостанции


Название, широта, долгота, высота метеостанции:
Чапаево 50.2°ш. 51.2°д. 17 м над ур. моря [Казахстан]

Дополнительная информация

В oтличие oт бoльшинства пoгoдных сайтoв мы публикуем пoдрoбную метеoинфoрмацию в детальнoм прoфессиoнальнoм фoрмате.

Характеристики температуры и влажнoсти вoздуха измеряются на высoте 2 м в тени вдали oт зданий и деревьев.
Скoрoсть ветра измеряется на высoте 10 м (на урoвне рoста челoвека скoрoсть ветра ниже в 1.5-2 раза). Если метеoстанция нахoдится в гoрoде или в лесу, тo скoрoсть ветра занижена на 2-4 м/с пo сравнению с oткрытым местoм. Скoрoсть ветра над акватoриями крупных рек и oзёр, а также на вершинах хoлмoв на 2-5 м/с выше, чем в oбычных услoвиях.
Атмoсфернoе давление в разных тoчках местнoсти мoжет значительнo oтличаться oт давления на метеoстанции, в зависимoсти oт услoвий рельефа (при пoдъёме на 10 м давление пoнижается примернo на 1 мм рт.ст.).